TimeEST,TemperatureF,Dew PointF,Humidity,Sea Level PressureIn,VisibilityMPH,Wind Direction,Wind SpeedMPH,Gust SpeedMPH,PrecipitationIn,Events,Conditions,WindDirDegrees,DateUTC
5:45 AM,33.8,21.2,60,30.34,10.0,NNW,5.8,-,N/A,,Clear,340,2012-11-30 10:45:00
6:45 AM,28.4,21.2,74,30.37,10.0,NNE,6.9,-,N/A,,Clear,20,2012-11-30 11:45:00
7:45 AM,30.2,21.2,69,30.39,10.0,North,5.8,-,N/A,,Clear,10,2012-11-30 12:45:00
8:45 AM,37.4,24.8,60,30.40,10.0,NE,5.8,-,N/A,,Clear,40,2012-11-30 13:45:00
9:45 AM,35.6,23.0,60,30.42,10.0,NE,4.6,-,N/A,,Mostly Cloudy,50,2012-11-30 14:45:00
10:45 AM,37.4,26.6,65,30.43,10.0,East,5.8,-,N/A,,Clear,80,2012-11-30 15:45:00
11:45 AM,37.4,24.8,60,30.41,10.0,ENE,6.9,-,N/A,,Mostly Cloudy,70,2012-11-30 16:45:00
12:55 PM,37.4,26.6,65,30.41,10.0,East,5.8,-,N/A,,Overcast,80,2012-11-30 17:55:00
2:45 PM,35.6,24.8,65,30.40,10.0,ENE,6.9,-,N/A,,Overcast,70,2012-11-30 19:45:00
3:45 PM,33.8,23.0,65,30.43,10.0,ENE,6.9,-,N/A,,Overcast,70,2012-11-30 20:45:00
4:45 PM,32.0,21.2,64,30.44,7.0,East,5.8,-,N/A,,Overcast,80,2012-11-30 21:45:00
5:45 PM,30.2,19.4,64,30.45,7.0,ENE,6.9,-,N/A,,Overcast,70,2012-11-30 22:45:00
6:45 PM,28.4,21.2,74,30.47,10.0,ENE,9.2,-,N/A,,Overcast,70,2012-11-30 23:45:00
7:45 PM,28.4,19.4,69,30.48,10.0,East,11.5,-,N/A,,Overcast,80,2012-12-01 00:45:00
9:15 PM,28.4,17.6,64,30.48,10.0,ENE,8.1,-,N/A,,Overcast,60,2012-12-01 02:15:00
9:35 PM,28.4,17.6,64,30.48,10.0,ENE,11.5,17.3,N/A,,Overcast,60,2012-12-01 02:35:00
9:55 PM,28.4,17.6,64,30.48,10.0,ENE,9.2,-,N/A,,Overcast,70,2012-12-01 02:55:00
10:15 PM,28.4,15.8,59,30.48,10.0,ENE,8.1,16.1,N/A,,Overcast,70,2012-12-01 03:15:00
10:35 PM,28.4,15.8,59,30.49,10.0,ENE,8.1,-,N/A,,Overcast,70,2012-12-01 03:35:00
10:55 PM,28.4,14.0,55,30.49,10.0,ENE,5.8,-,N/A,,Overcast,70,2012-12-01 03:55:00
11:15 PM,28.4,14.0,55,30.49,10.0,ENE,9.2,-,N/A,,Overcast,70,2012-12-01 04:15:00
11:35 PM,28.4,12.2,51,30.50,10.0,ENE,8.1,-,N/A,,Overcast,70,2012-12-01 04:35:00